SCP
0 0 0 0 0 0 0 -0 -0 -0 -0 -0 -0 -0 0 0 0 0 0 0 0 0 0 0 1 2 3 2 2 1 1 1 1 1 0 0 0 0 0 0 0 0 0
0 0 0 0 0 -0 -0 -0 -0 -0 -0 -0 -0 -0 -0 -0 0 0 0 0 0 0 0 0 0 0 2 2 2 2 2 1 1 2 1 1 0 0 0 0 0 0 0
0 0 0 -0 -0 -0 -0 -0 -0 -0 -0 -0 -0 -0 -0 -0 -0 0 0 0 0 0 0 0 0 0 0 1 1 2 2 2 1 1 1 0 0 0 0 0 0 0 0
0 0 0 -0 -0 -0 -0 -0 -0 -0 -0 -0 -0 -0 -0 -0 -0 -0 0 0 0 -0 0 0 0 0 0 0 1 2 2 2 2 1 1 0 0 0 0 0 0 0 0
0 0 0 0 -0 -0 -0 -0 -0 -0 -0 0 -0 -0 -0 -0 -0 -0 -0 -0 -0 0 0 -0 0 0 0 0 1 1 2 2 1 1 1 1 0 0 0 0 0 0 0
0 0 0 0 -0 -0 -0 -0 -0 -0 -0 -0 -0 0 -0 -0 -0 -0 -0 -0 -0 -0 0 0 0 0 0 0 0 1 1 0 1 1 1 0 0 0 0 0 0 0 0
0 0 0 0 0 -0 -0 -0 -0 0 -0 0 0 0 0 0 -0 -0 -0 -0 -0 0 0 0 0 0 0 0 0 1 1 1 1 1 1 1 1 1 0 0 0 0 0
0 -0 -0 -0 -0 -0 -0 -0 -0 0 0 0 0 0 0 0 0 -0 -0 -0 0 -0 0 0 0 0 0 0 0 1 2 1 1 1 1 1 1 1 0 0 0 0 0
-0 -0 -0 -0 -0 -0 -0 -0 -0 -0 0 0 0 0 0 0 0 0 0 0 0 0 0 0 0 0 0 0 0 1 2 1 1 0 0 0 0 0 0 0 0 0 0
0 0 -0 -0 -0 -0 -0 -0 -0 0 0 0 0 0 0 0 0 0 0 0 0 0 0 0 0 0 0 0 0 1 1 1 1 1 0 0 0 0 0 0 0 0 0
0 0 0 -0 -0 -0 -0 -0 -0 -0 0 0 0 0 0 0 0 0 0 0 0 0 0 0 0 0 0 0 0 0 0 1 0 0 0 0 0 0 0 0 0 0 0
0 0 -0 -0 0 0 0 0 0 0 0 0 0 0 0 0 0 0 0 0 0 0 0 0 0 0 0 0 0 0 0 0 0 0 0 0 0 0 0 0 0 0 0
0 0 0 0 0 0 0 0 0 0 0 -0 -0 0 0 0 0 0 0 0 0 0 0 0 0 0 0 0 0 0 0 0 0 0 0 0 0 0 0 0 0 0 0
0 0 0 0 0 0 0 0 0 0 0 -0 0 0 0 0 0 0 0 0 0 0 0 0 0 0 -0 -0 0 0 0 0 0 0 0 0 0 0 0 0 0 0 0
0 0 0 0 0 0 0 0 0 0 -0 0 -0 0 0 0 0 0 -0 -0 -0 0 0 0 0 0 0 -0 0 0 0 0 0 0 0 0 0 0 0 0 0 0 0
0 0 0 0 0 0 0 0 0 0 -0 0 0 0 -0 0 0 0 -0 -0 -0 -0 0 0 0 0 -0 0 0 0 0 0 0 0 0 0 0 0 0 0 0 0 0
0 0 0 0 0 0 0 0 0 0 0 -0 0 0 0 0 0 0 0 -0 -0 -0 -0 -0 0 0 0 0 0 0 0 0 0 0 0 0 0 0 0 0 0 0 0
0 0 0 0 0 0 0 0 0 0 0 0 0 0 0 0 0 0 -0 0 0 0 -0 -0 0 0 0 0 0 0 0 0 0 0 0 0 0 0 0 0 0 0 0
0 0 0 0 0 0 0 0 0 0 0 -0 0 0 0 0 0 0 0 -0 -0 -0 -0 0 -0 -0 -0 0 0 0 0 0 0 0 0 0 0 0 0 0 0 0 0
0 0 0 0 0 0 0 0 0 0 0 0 0 0 0 0 0 0 0 0 0 0 0 0 -0 -0 -0 -0 0 0 0 0 0 0 0 0 0 0 0 0 0 0 0
0 0 0 0 0 0 0 0 0 0 0 0 0 0 0 0 0 0 0 0 0 0 0 -0 -0 -0 0 0 -0 0 0 0 0 0 0 0 0 0 0 0 0 0 0
0 0 0 0 0 0 0 0 0 0 0 0 0 0 0 0 0 0 0 0 0 0 0 0 0 0 0 -0 -0 -0 -0 0 0 0 0 0 0 0 0 0 0 0 0
0 0 0 0 0 0 0 0 0 0 0 0 0 0 0 0 0 0 -0 0 0 0 0 0 0 0 0 0 -0 -0 -0 0 0 0 0 0 0 0 0 0 0 0 0
0 0 0 0 0 0 0 0 0 0 0 0 0 0 0 0 0 0 0 -0 0 -0 -0 -0 0 0 0 0 0 0 0 0 0 0 0 0 -0 -0 -0 0 0 0 0
0 0 0 0 0 0 0 0 0 0 0 0 0 0 0 0 0 0 0 -0 -0 0 -0 -0 -0 0 0 0 0 0 0 0 0 0 0 0 0 0 0 0 0 0 0
0 0 0 0 0 0 0 0 0 0 0 0 0 0 0 0 0 0 0 0 0 0 0 0 0 0 0 0 0 0 0 0 0 0 0 0 0 0 0 0 0 0 0
Wind_Speed_500mb
39 38 40 40 40 41 44 51 54 57 61 65 70 71 70 63 56 55 55 51 55 65 71 70 69 81 94 99 96 100 97 94 87 83 81 74 81 84 82 80 77 69 62
37 37 40 44 50 54 58 59 59 61 65 64 65 70 72 68 64 65 63 67 65 62 65 72 79 85 84 97 101 107 111 107 101 97 82 71 80 86 84 90 90 85 70
35 35 42 51 52 55 60 61 66 67 66 67 66 66 70 74 72 65 67 65 71 71 76 75 72 79 80 91 103 110 112 114 117 105 89 43 43 70 87 96 100 95 86
34 39 46 52 57 60 59 60 64 69 72 74 78 74 71 76 77 82 76 77 75 79 78 80 82 78 71 80 106 108 104 114 110 111 96 95 52 32 37 64 101 100 91
33 40 45 50 55 60 63 67 70 68 64 64 68 76 76 76 78 76 83 79 82 76 74 76 79 81 82 77 83 107 102 109 116 112 87 77 77 82 72 87 80 91 89
30 34 36 43 51 56 64 71 76 75 73 71 65 65 71 75 80 84 82 81 81 84 76 74 81 82 84 85 77 79 96 108 100 80 80 94 78 77 68 48 50 79 84
20 19 26 36 43 53 62 73 78 74 71 68 65 63 64 71 75 76 78 79 81 81 81 78 79 83 84 86 84 73 88 95 89 82 79 80 89 87 69 70 56 44 45
11 18 20 28 36 48 62 69 70 68 67 65 63 61 62 67 70 73 72 71 71 76 76 75 73 76 86 87 85 77 77 82 80 78 76 79 83 88 82 71 57 50 66
13 11 19 26 39 52 61 66 67 65 66 62 61 59 60 64 66 72 70 68 66 66 67 63 65 65 70 80 71 78 73 77 74 77 72 72 78 80 78 72 67 56 51
13 13 22 32 41 50 58 60 61 64 62 57 58 59 59 59 58 66 64 62 61 58 57 50 50 57 62 57 58 67 76 74 72 70 65 69 68 60 64 65 57 61 69
12 16 25 37 45 49 54 58 58 64 58 58 65 61 59 60 56 59 60 59 57 53 49 36 42 49 39 36 46 49 60 74 68 67 66 63 58 60 71 55 58 60 66
12 18 24 30 39 50 58 60 62 65 60 62 70 64 55 60 59 56 60 56 54 50 44 37 37 45 39 31 20 39 32 54 57 56 57 62 65 63 59 63 62 58 52
12 15 24 33 42 50 53 54 59 61 57 62 70 63 59 58 60 57 57 54 54 49 45 45 38 44 46 49 49 4 18 33 57 55 55 52 49 45 45 47 50 52 49
7 18 30 38 44 49 48 51 60 57 56 61 71 62 56 56 58 59 58 54 51 47 47 46 42 45 46 49 47 33 15 11 22 36 38 40 41 44 36 35 35 44 52
11 19 26 34 40 43 41 50 58 60 57 65 72 61 56 53 53 57 58 54 51 46 44 44 39 47 50 55 49 31 19 19 22 25 30 33 32 34 39 39 43 48 35
8 15 21 29 39 41 42 51 55 58 56 64 70 60 55 53 52 60 53 52 50 46 42 38 41 47 52 56 42 27 19 23 15 5 13 14 29 36 38 36 37 39 40
5 15 25 33 36 40 43 48 51 54 58 65 64 57 52 55 52 53 50 53 54 51 44 38 40 45 48 56 43 34 30 26 21 14 7 10 14 26 34 38 46 52 53
14 19 21 25 32 36 40 42 48 54 59 63 61 51 50 55 51 54 50 50 54 56 48 43 47 48 45 53 46 27 19 22 21 24 18 16 14 16 20 20 22 25 31
10 8 13 22 31 37 38 43 50 54 57 61 57 47 46 51 51 54 51 47 51 54 47 42 45 46 47 45 49 41 33 25 23 10 12 14 18 23 19 20 23 23 25
6 10 19 28 37 35 39 46 50 54 58 57 50 42 41 44 48 51 49 46 45 54 48 43 52 49 53 53 47 44 39 38 33 22 22 23 22 20 20 25 27 30 30
8 17 27 34 33 37 41 45 48 51 52 47 40 40 42 41 42 45 44 45 44 51 50 49 53 55 61 54 51 48 48 43 41 35 30 25 23 20 18 19 24 28 32
18 27 31 30 32 35 39 42 44 46 43 42 38 40 42 45 44 47 45 45 48 53 54 53 60 61 58 55 56 51 46 39 40 39 36 35 35 26 19 20 22 24 30
25 28 29 28 29 31 35 37 40 41 42 39 37 39 40 43 42 47 47 47 48 51 55 57 63 66 58 58 62 58 52 43 40 36 33 28 27 29 27 31 32 26 27
25 26 26 26 29 30 30 33 39 39 40 39 36 39 45 43 40 46 45 43 45 48 50 56 62 63 60 63 63 60 55 48 43 40 36 33 33 32 31 32 31 27 27
22 24 24 25 30 34 33 39 37 39 42 36 35 42 46 41 42 45 43 40 35 35 41 47 54 56 59 57 53 54 51 50 44 41 37 39 42 45 45 44 44 37 33
21 20 20 22 28 37 38 36 36 39 41 36 36 42 44 39 44 46 45 37 35 33 32 37 45 41 39 44 48 46 45 43 42 39 42 46 48 50 53 54 54 49 45
Wind_Direction_500mb
65 51 44 33 22 15 8 3 359 357 350 346 342 338 338 330 316 295 283 282 277 265 256 256 258 261 258 252 251 253 251 249 246 240 238 234 228 227 231 237 235 236 235
68 49 36 26 17 9 5 359 355 352 350 347 344 340 336 331 325 316 301 289 282 276 271 271 266 259 259 259 251 249 252 251 245 236 236 236 233 232 232 236 236 235 232
71 46 29 22 15 7 1 355 353 348 345 342 338 335 333 332 326 318 313 302 294 286 278 278 276 270 269 256 259 251 248 249 249 244 235 236 231 235 233 235 237 234 233
50 34 22 13 5 1 356 350 348 348 344 342 337 338 339 336 334 326 317 310 304 296 292 285 282 281 276 264 256 257 253 250 244 245 241 238 233 227 242 254 245 237 234
30 21 11 5 358 351 348 346 344 344 342 340 335 333 334 333 331 328 319 311 306 302 299 296 290 283 273 271 263 256 252 252 250 239 239 238 269 266 249 233 233 231 230
28 11 4 354 348 346 347 346 344 343 343 341 337 332 329 330 329 329 324 316 311 306 302 304 297 290 282 269 271 262 250 255 259 255 249 248 237 235 225 229 230 228 229
22 6 354 346 344 342 342 341 341 340 339 337 335 331 327 327 327 327 324 319 318 311 306 309 304 295 289 276 264 264 256 251 254 254 252 250 244 240 234 245 248 248 256
24 358 351 349 345 343 342 344 346 345 345 342 339 335 332 329 326 325 322 318 313 310 302 305 306 301 292 286 267 261 259 259 252 244 245 249 250 248 244 223 220 224 245
32 21 354 353 349 345 346 348 347 349 349 345 339 336 333 329 325 326 322 318 316 311 306 303 320 307 298 280 275 255 253 251 253 248 245 249 251 251 247 220 224 236 229
43 15 2 356 351 350 349 348 350 350 349 347 346 342 339 331 330 329 326 322 320 316 311 307 327 324 288 280 274 252 248 245 249 251 251 252 252 247 246 232 248 254 254
24 1 356 346 345 346 348 350 352 349 348 350 350 347 344 342 336 336 335 329 325 325 320 320 338 329 317 278 276 262 251 242 242 244 248 246 242 231 234 241 253 255 253
27 6 353 349 344 346 345 348 349 347 346 350 349 347 346 347 344 339 340 343 336 334 332 338 341 336 340 357 326 231 216 230 231 227 232 228 232 227 241 256 257 253 254
12 351 345 347 348 347 345 346 347 346 342 347 347 346 347 347 349 348 349 345 347 346 347 349 344 342 348 335 2 325 168 185 208 207 211 225 235 239 239 247 254 257 255
19 346 345 346 344 344 342 343 346 345 342 343 345 346 345 346 345 347 351 348 350 353 357 358 2 354 355 357 358 357 54 70 156 184 201 213 222 218 204 209 232 242 251
353 346 343 339 340 344 343 341 343 341 341 339 344 346 345 346 347 347 349 350 352 351 352 2 4 358 2 6 2 10 16 45 102 143 163 188 192 202 219 228 238 247 247
4 352 342 342 345 345 342 339 338 340 336 340 344 345 347 351 350 351 353 353 355 4 4 9 5 352 357 360 8 6 13 9 37 325 164 195 217 224 233 236 232 231 238
29 354 346 342 344 343 336 336 334 334 337 342 345 348 351 353 354 355 357 3 5 2 2 4 356 354 350 354 0 3 11 350 345 11 326 345 262 243 236 241 251 256 257
5 356 341 340 342 335 331 329 331 333 340 344 350 351 354 351 353 356 0 3 4 4 4 1 356 352 352 347 0 17 354 351 343 9 349 315 296 269 243 242 246 244 243
32 7 344 334 326 325 329 328 329 337 341 348 351 352 355 349 354 354 359 3 360 6 8 8 4 2 2 354 357 6 6 358 26 345 323 322 311 310 293 269 260 256 247
63 348 333 324 323 329 330 328 334 338 346 350 351 353 354 350 353 352 356 358 357 2 5 7 8 9 6 2 9 8 5 3 8 8 353 340 330 324 309 296 285 277 268
349 334 328 328 330 328 330 333 339 345 349 350 355 358 1 358 353 356 3 0 1 0 5 4 5 8 7 10 14 11 6 5 4 9 2 356 347 345 332 313 296 289 277
329 327 329 331 328 330 333 340 345 350 350 353 360 359 2 6 359 357 359 1 1 0 5 359 2 5 6 9 11 8 5 8 6 7 6 4 0 359 346 320 305 293 291
335 333 337 336 337 343 345 347 352 351 353 360 2 359 1 7 359 359 0 3 2 2 1 356 356 1 7 7 4 1 1 1 6 13 9 1 350 351 338 321 323 312 307
339 343 345 350 357 1 358 356 353 352 351 359 358 356 2 3 359 4 3 3 4 5 0 352 352 358 5 5 359 357 356 359 1 0 357 356 0 1 355 351 350 341 327
351 352 357 2 9 7 360 357 355 354 352 357 356 354 1 357 359 4 6 6 6 2 358 348 352 0 3 1 358 358 359 357 356 352 349 353 356 356 357 359 356 351 339
4 7 8 7 7 5 360 357 356 356 352 356 356 355 355 353 356 357 356 7 5 1 4 347 359 3 1 357 2 9 5 359 357 354 359 -0 1 360 358 356 354 352 347
Wind_Speed_850mb
39 38 40 40 40 41 44 51 54 57 61 65 70 71 70 63 56 55 55 51 55 65 71 70 69 81 94 99 96 100 97 94 87 83 81 74 81 84 82 80 77 69 62
37 37 40 44 50 54 58 59 59 61 65 64 65 70 72 68 64 65 63 67 65 62 65 72 79 85 84 97 101 107 111 107 101 97 82 71 80 86 84 90 90 85 70
35 35 42 51 52 55 60 61 66 67 66 67 66 66 70 74 72 65 67 65 71 71 76 75 72 79 80 91 103 110 112 114 117 105 89 43 43 70 87 96 100 95 86
34 39 46 52 57 60 59 60 64 69 72 74 78 74 71 76 77 82 76 77 75 79 78 80 82 78 71 80 106 108 104 114 110 111 96 95 52 32 37 64 101 100 91
33 40 45 50 55 60 63 67 70 68 64 64 68 76 76 76 78 76 83 79 82 76 74 76 79 81 82 77 83 107 102 109 116 112 87 77 77 82 72 87 80 91 89
30 34 36 43 51 56 64 71 76 75 73 71 65 65 71 75 80 84 82 81 81 84 76 74 81 82 84 85 77 79 96 108 100 80 80 94 78 77 68 48 50 79 84
20 19 26 36 43 53 62 73 78 74 71 68 65 63 64 71 75 76 78 79 81 81 81 78 79 83 84 86 84 73 88 95 89 82 79 80 89 87 69 70 56 44 45
11 18 20 28 36 48 62 69 70 68 67 65 63 61 62 67 70 73 72 71 71 76 76 75 73 76 86 87 85 77 77 82 80 78 76 79 83 88 82 71 57 50 66
13 11 19 26 39 52 61 66 67 65 66 62 61 59 60 64 66 72 70 68 66 66 67 63 65 65 70 80 71 78 73 77 74 77 72 72 78 80 78 72 67 56 51
13 13 22 32 41 50 58 60 61 64 62 57 58 59 59 59 58 66 64 62 61 58 57 50 50 57 62 57 58 67 76 74 72 70 65 69 68 60 64 65 57 61 69
12 16 25 37 45 49 54 58 58 64 58 58 65 61 59 60 56 59 60 59 57 53 49 36 42 49 39 36 46 49 60 74 68 67 66 63 58 60 71 55 58 60 66
12 18 24 30 39 50 58 60 62 65 60 62 70 64 55 60 59 56 60 56 54 50 44 37 37 45 39 31 20 39 32 54 57 56 57 62 65 63 59 63 62 58 52
12 15 24 33 42 50 53 54 59 61 57 62 70 63 59 58 60 57 57 54 54 49 45 45 38 44 46 49 49 4 18 33 57 55 55 52 49 45 45 47 50 52 49
7 18 30 38 44 49 48 51 60 57 56 61 71 62 56 56 58 59 58 54 51 47 47 46 42 45 46 49 47 33 15 11 22 36 38 40 41 44 36 35 35 44 52
11 19 26 34 40 43 41 50 58 60 57 65 72 61 56 53 53 57 58 54 51 46 44 44 39 47 50 55 49 31 19 19 22 25 30 33 32 34 39 39 43 48 35
8 15 21 29 39 41 42 51 55 58 56 64 70 60 55 53 52 60 53 52 50 46 42 38 41 47 52 56 42 27 19 23 15 5 13 14 29 36 38 36 37 39 40
5 15 25 33 36 40 43 48 51 54 58 65 64 57 52 55 52 53 50 53 54 51 44 38 40 45 48 56 43 34 30 26 21 14 7 10 14 26 34 38 46 52 53
14 19 21 25 32 36 40 42 48 54 59 63 61 51 50 55 51 54 50 50 54 56 48 43 47 48 45 53 46 27 19 22 21 24 18 16 14 16 20 20 22 25 31
10 8 13 22 31 37 38 43 50 54 57 61 57 47 46 51 51 54 51 47 51 54 47 42 45 46 47 45 49 41 33 25 23 10 12 14 18 23 19 20 23 23 25
6 10 19 28 37 35 39 46 50 54 58 57 50 42 41 44 48 51 49 46 45 54 48 43 52 49 53 53 47 44 39 38 33 22 22 23 22 20 20 25 27 30 30
8 17 27 34 33 37 41 45 48 51 52 47 40 40 42 41 42 45 44 45 44 51 50 49 53 55 61 54 51 48 48 43 41 35 30 25 23 20 18 19 24 28 32
18 27 31 30 32 35 39 42 44 46 43 42 38 40 42 45 44 47 45 45 48 53 54 53 60 61 58 55 56 51 46 39 40 39 36 35 35 26 19 20 22 24 30
25 28 29 28 29 31 35 37 40 41 42 39 37 39 40 43 42 47 47 47 48 51 55 57 63 66 58 58 62 58 52 43 40 36 33 28 27 29 27 31 32 26 27
25 26 26 26 29 30 30 33 39 39 40 39 36 39 45 43 40 46 45 43 45 48 50 56 62 63 60 63 63 60 55 48 43 40 36 33 33 32 31 32 31 27 27
22 24 24 25 30 34 33 39 37 39 42 36 35 42 46 41 42 45 43 40 35 35 41 47 54 56 59 57 53 54 51 50 44 41 37 39 42 45 45 44 44 37 33
21 20 20 22 28 37 38 36 36 39 41 36 36 42 44 39 44 46 45 37 35 33 32 37 45 41 39 44 48 46 45 43 42 39 42 46 48 50 53 54 54 49 45
Wind_Direction_850mb
65 51 44 33 22 15 8 3 359 357 350 346 342 338 338 330 316 295 283 282 277 265 256 256 258 261 258 252 251 253 251 249 246 240 238 234 228 227 231 237 235 236 235
68 49 36 26 17 9 5 359 355 352 350 347 344 340 336 331 325 316 301 289 282 276 271 271 266 259 259 259 251 249 252 251 245 236 236 236 233 232 232 236 236 235 232
71 46 29 22 15 7 1 355 353 348 345 342 338 335 333 332 326 318 313 302 294 286 278 278 276 270 269 256 259 251 248 249 249 244 235 236 231 235 233 235 237 234 233
50 34 22 13 5 1 356 350 348 348 344 342 337 338 339 336 334 326 317 310 304 296 292 285 282 281 276 264 256 257 253 250 244 245 241 238 233 227 242 254 245 237 234
30 21 11 5 358 351 348 346 344 344 342 340 335 333 334 333 331 328 319 311 306 302 299 296 290 283 273 271 263 256 252 252 250 239 239 238 269 266 249 233 233 231 230
28 11 4 354 348 346 347 346 344 343 343 341 337 332 329 330 329 329 324 316 311 306 302 304 297 290 282 269 271 262 250 255 259 255 249 248 237 235 225 229 230 228 229
22 6 354 346 344 342 342 341 341 340 339 337 335 331 327 327 327 327 324 319 318 311 306 309 304 295 289 276 264 264 256 251 254 254 252 250 244 240 234 245 248 248 256
24 358 351 349 345 343 342 344 346 345 345 342 339 335 332 329 326 325 322 318 313 310 302 305 306 301 292 286 267 261 259 259 252 244 245 249 250 248 244 223 220 224 245
32 21 354 353 349 345 346 348 347 349 349 345 339 336 333 329 325 326 322 318 316 311 306 303 320 307 298 280 275 255 253 251 253 248 245 249 251 251 247 220 224 236 229
43 15 2 356 351 350 349 348 350 350 349 347 346 342 339 331 330 329 326 322 320 316 311 307 327 324 288 280 274 252 248 245 249 251 251 252 252 247 246 232 248 254 254
24 1 356 346 345 346 348 350 352 349 348 350 350 347 344 342 336 336 335 329 325 325 320 320 338 329 317 278 276 262 251 242 242 244 248 246 242 231 234 241 253 255 253
27 6 353 349 344 346 345 348 349 347 346 350 349 347 346 347 344 339 340 343 336 334 332 338 341 336 340 357 326 231 216 230 231 227 232 228 232 227 241 256 257 253 254
12 351 345 347 348 347 345 346 347 346 342 347 347 346 347 347 349 348 349 345 347 346 347 349 344 342 348 335 2 325 168 185 208 207 211 225 235 239 239 247 254 257 255
19 346 345 346 344 344 342 343 346 345 342 343 345 346 345 346 345 347 351 348 350 353 357 358 2 354 355 357 358 357 54 70 156 184 201 213 222 218 204 209 232 242 251
353 346 343 339 340 344 343 341 343 341 341 339 344 346 345 346 347 347 349 350 352 351 352 2 4 358 2 6 2 10 16 45 102 143 163 188 192 202 219 228 238 247 247
4 352 342 342 345 345 342 339 338 340 336 340 344 345 347 351 350 351 353 353 355 4 4 9 5 352 357 360 8 6 13 9 37 325 164 195 217 224 233 236 232 231 238
29 354 346 342 344 343 336 336 334 334 337 342 345 348 351 353 354 355 357 3 5 2 2 4 356 354 350 354 0 3 11 350 345 11 326 345 262 243 236 241 251 256 257
5 356 341 340 342 335 331 329 331 333 340 344 350 351 354 351 353 356 0 3 4 4 4 1 356 352 352 347 0 17 354 351 343 9 349 315 296 269 243 242 246 244 243
32 7 344 334 326 325 329 328 329 337 341 348 351 352 355 349 354 354 359 3 360 6 8 8 4 2 2 354 357 6 6 358 26 345 323 322 311 310 293 269 260 256 247
63 348 333 324 323 329 330 328 334 338 346 350 351 353 354 350 353 352 356 358 357 2 5 7 8 9 6 2 9 8 5 3 8 8 353 340 330 324 309 296 285 277 268
349 334 328 328 330 328 330 333 339 345 349 350 355 358 1 358 353 356 3 0 1 0 5 4 5 8 7 10 14 11 6 5 4 9 2 356 347 345 332 313 296 289 277
329 327 329 331 328 330 333 340 345 350 350 353 360 359 2 6 359 357 359 1 1 0 5 359 2 5 6 9 11 8 5 8 6 7 6 4 0 359 346 320 305 293 291
335 333 337 336 337 343 345 347 352 351 353 360 2 359 1 7 359 359 0 3 2 2 1 356 356 1 7 7 4 1 1 1 6 13 9 1 350 351 338 321 323 312 307
339 343 345 350 357 1 358 356 353 352 351 359 358 356 2 3 359 4 3 3 4 5 0 352 352 358 5 5 359 357 356 359 1 0 357 356 0 1 355 351 350 341 327
351 352 357 2 9 7 360 357 355 354 352 357 356 354 1 357 359 4 6 6 6 2 358 348 352 0 3 1 358 358 359 357 356 352 349 353 356 356 357 359 356 351 339
4 7 8 7 7 5 360 357 356 356 352 356 356 355 355 353 356 357 356 7 5 1 4 347 359 3 1 357 2 9 5 359 357 354 359 -0 1 360 358 356 354 352 347